Regional Weather Roundup
Issued by NWS

Home | Current Version | Previous Version | Text Only | Print | Product List | Glossary On
Versions: 1 2 3 4 5 6 7 8 9 10 11 12 13 14 15 16 17 18 19 20 21 22 23 24 25 26 27 28 29 30 31 32 33 34 35 36 37 38 39 40 41 42 43 44 45 46 47 48 49 50
000
ASUS43 KFSD 210410
RWRSD

WEATHER ROUNDUP FOR SOUTH DAKOTA
NATIONAL WEATHER SERVICE SIOUX FALLS SD
1100 PM CDT SUN APR 20 2014

NOTE: "FAIR" INDICATES FEW OR NO CLOUDS BELOW 12,000 FEET WITH NO
SIGNIFICANT WEATHER AND/OR OBSTRUCTIONS TO VISIBILITY.


SDZ001>005-009-010-012>017-210500-
NORTHWEST AND NORTH CENTRAL SOUTH DAKOTA

CITY           SKY/WX    TMP DP  RH WIND       PRES   REMARKS
BUFFALO          N/A     48  20  32 NW12      30.06R
FAITH            N/A     49  28  44 NW14      30.06R
MOBRIDGE       CLEAR     52  27  38 N13       29.99R
$$

SDZ012>016-024>037-041>051-057-063-072>074-210500-
SOUTHWEST AND SOUTH CENTRAL SOUTH DAKOTA

CITY           SKY/WX    TMP DP  RH WIND       PRES   REMARKS
RAPID CTY ARPT CLEAR     47  28  47 N10       30.10R
PIERRE         CLEAR     60  31  33 N21       29.96R
CUSTER         CLEAR     49  25  39 N10       30.14R
ELLSWORTH AFB  CLEAR     53  27  36 NW10      30.10R
PHILIP         CLEAR     57  27  31 N18       30.03R
PINE RIDGE     CLEAR     57  28  33 NE3       30.07R
SPEARFISH      FAIR      46  27  46 W8        30.17R
WINNER         FAIR      64  39  39 N16       29.93R
$$

SDZ004>011-016>023-039-040-210500-
NORTHEAST SOUTH DAKOTA

CITY           SKY/WX    TMP DP  RH WIND       PRES   REMARKS
ABERDEEN       MOCLDY    62  33  33 NW16G40   29.96R
WATERTOWN      PTCLDY    60  39  45 E7        29.91S
SISSETON         N/A     50  39  66 SW7       29.90S
$$

SDZ017-020-022-023-036>040-048>070-210500-
SOUTHEAST SOUTH DAKOTA

CITY           SKY/WX    TMP DP  RH WIND       PRES   REMARKS
SIOUX FALLS    PTCLDY    60  50  69 CALM      29.88S
HURON          LGT RAIN  61  44  53 N13       29.92R
CHAMBERLAIN      N/A     63  50  62 N3        29.90R
MITCHELL       MOCLDY    70  45  40 SW15G25   29.89R THUNDER
YANKTON        MOCLDY    66  52  59 S8        29.89S
$$

ABBREVIATIONS USED IN REMARKS
   TC - TEMPERATURE IN CELSIUS
  WCI - WIND CHILL INDEX
   HX - HEAT INDEX
  VSB - VISIBILITY




USA.gov is the U.S. government's official web portal to all federal, state and local government web resources and services.